Dewpoint
75 74 73 73 73 72 72 73 73 70 71 69 68 70 71 72 72 71 71 72 72 73 74 76 76 76 73 74 75 75 75 73 73 74 72 72 72 69 67 67 68 66
75 74 74 72 73 74 75 73 72 72 73 74 72 74 72 73 71 72 72 72 73 73 74 74 75 76 76 75 75 74 74 75 73 71 73 73 72 70 68 68 67 69
74 74 73 72 71 74 71 72 74 73 74 71 71 74 73 72 73 73 73 73 73 71 73 75 76 76 75 76 79 75 74 75 74 71 74 75 73 72 72 68 68 67
73 73 71 70 71 71 69 72 73 73 72 71 72 70 71 68 72 72 74 73 73 73 73 74 75 74 76 76 79 75 75 77 75 75 76 76 74 72 72 71 69 69
71 71 71 70 70 71 71 69 71 70 70 72 70 72 71 74 73 73 74 72 75 74 74 75 75 74 76 76 77 75 74 74 74 77 76 75 76 74 70 71 72 71
71 72 72 70 71 71 70 69 69 70 69 68 69 70 71 72 72 72 72 72 70 71 71 72 74 72 74 76 76 75 73 71 75 77 75 75 73 73 69 70 73 71
68 69 69 69 68 69 70 70 70 70 68 68 72 70 70 71 71 72 73 72 71 71 70 73 74 73 73 75 76 75 75 76 75 76 76 75 75 74 72 72 74 74
68 67 68 69 67 67 67 67 69 69 70 69 69 70 71 70 72 70 72 72 71 71 72 71 74 76 73 72 74 75 75 70 74 76 78 75 75 76 76 73 74 74
66 66 67 66 65 65 64 63 65 67 69 69 67 68 70 71 70 70 71 73 72 71 73 73 75 74 72 73 73 75 74 72 69 73 73 73 72 73 73 74 73 73
67 66 63 64 63 63 63 63 62 64 66 67 67 66 67 69 70 70 71 74 72 73 74 74 74 73 73 72 73 75 75 73 73 73 73 73 73 73 72 72 72 74
65 64 64 64 62 61 61 62 62 61 64 65 66 65 66 68 70 71 73 75 72 73 74 74 73 73 73 71 72 72 73 72 73 74 73 73 73 73 73 73 73 72
68 65 63 63 62 62 61 60 61 61 62 64 65 65 66 65 69 69 71 74 74 73 73 74 74 74 74 73 71 71 71 71 71 72 72 73 72 71 71 71 70 71
72 71 68 65 63 63 61 62 61 60 60 61 64 65 64 63 65 69 71 72 73 72 72 73 74 73 75 74 73 72 71 71 69 70 70 71 71 70 70 71 70 69
72 72 71 69 67 67 65 63 62 62 63 63 64 65 63 63 63 66 69 70 72 71 72 73 75 73 74 74 73 72 71 72 72 71 70 70 70 70 69 69 69 69
72 73 73 72 70 70 67 65 65 66 66 66 67 66 63 63 63 63 67 68 70 71 71 70 70 71 72 73 73 72 71 70 71 71 70 71 71 70 69 69 69 69
73 74 75 75 73 72 72 70 68 68 67 67 67 67 68 69 68 65 64 66 68 70 70 68 68 68 73 75 74 71 69 67 69 71 72 71 72 72 69 69 68 67
75 75 75 75 76 75 74 74 74 72 70 71 70 70 71 72 68 66 63 64 66 67 68 66 66 66 71 69 70 72 73 72 70 72 73 73 73 74 73 70 68 67
74 73 76 75 76 78 78 78 77 75 74 73 71 69 72 71 69 68 67 65 64 66 66 66 65 72 65 67 68 69 74 72 70 70 70 71 70 69 70 69 68 66
74 73 72 73 75 76 77 77 77 77 76 74 72 72 71 72 73 70 68 67 66 67 66 65 68 65 65 68 68 68 70 74 67 68 68 68 70 70 70 70 70 68
73 73 72 72 74 74 75 74 75 74 74 74 74 74 74 73 72 72 70 72 69 68 71 70 68 63 62 65 66 67 68 71 68 67 67 68 69 70 69 70 72 71
71 71 71 72 73 73 73 73 74 74 74 74 73 73 73 74 74 73 71 71 69 67 68 68 65 59 61 62 62 64 66 70 70 66 66 67 68 69 72 71 72 74
70 71 71 71 73 73 73 73 73 73 73 75 74 74 73 73 72 72 71 71 71 69 69 69 66 58 59 60 60 62 65 70 70 71 68 67 67 68 71 73 72 73
69 70 70 71 72 72 72 72 73 73 74 74 74 74 73 71 70 69 70 71 71 71 70 69 67 60 56 57 58 60 66 71 71 69 70 68 67 69 70 73 75 75
68 68 68 70 70 69 70 71 72 73 73 73 73 74 74 73 72 71 70 70 71 71 69 68 67 61 55 55 56 57 64 73 73 71 70 71 70 71 72 75 74 77
66 67 67 67 68 68 69 70 70 72 73 73 73 73 73 74 73 71 70 70 70 71 70 71 68 63 54 53 53 55 66 74 76 74 73 73 71 72 71 73 73 71
64 65 66 66 67 67 68 69 70 70 70 71 72 72 73 72 72 71 70 70 71 70 68 67 66 63 58 52 52 53 55 71 76 75 74 72 71 70 69 69 73 71